STARLINK-35016 (65341 NORAD) Tracking and Keplerian Element Data

This shows tracking and keplerian element data for the satellite.

Feedback or suggestion? Click here.




ElementValue
Catalog65341
NameSTARLINK-35016
Epoch Orbit1884
Epoch Day353.92655464
Epoch Year2025
RAAN217.3067
Inclination53.1567
Eccentricity8.26E-05
Argument of Perigee90.8909
Mean Anonmoly269.2186
Mean Motion15.30195319
Decay Rate9.301E-05
L11 65341U 25189U 25353.92655464 .00009301 00000+0 32580-3 0 9996
L22 65341 53.1567 217.3067 0000826 90.8909 269.2186 15.30195319 18847



Live tracking and technical data element details for STARLINK-35016 (NORAD 65341). STARLINK-35016 can be tracked NOW for your location showing map with azimuth and elevation plus other details from your city location.







IsCatalogInMostPopularTable: catalog: 65341, numindb: 8
Update: records affected: 1



GetName: 65341 STARLINK-35016

Hit Count: updated at: Thu, 16 Apr 2026 05:49:28 GMT